DIAMANT R/B, 2682

Orbit data source: Space-Track

DIAMANT R/B, 2682 is space debris in LEO originally from a launch on Wed, 15 Feb 1967 UTC launched from the Hamma Guira Space Track Range (HGSTR). Debris objects in space refer to the collection of defunct objects orbiting the Earth. Examples of debris include non-operational satellites, rocket bodies, and fragments generated from explosions, collisions, or faulty payload assembly.

Loading next visibility...
Identifier
2682, 1967-014B
Orbit
LEO
Country
Flag of FRFR
Related business
Manufacturer
Sud
Mission
Spacecraft
Bus & Motor
RUBIS, Unknown motor
Mass
65 kg wet, 65 kg dry
Launch date (UTC)
1967-02-15 (59 years ago)
Launch vehicle
Unknown
Launch site
Hamma Guira Space Track Range (HGSTR)
Object type
Payload
Rocket body
Debris
Shape & HBR
Unknown
Radar Cross Section
Large (>1 m²)

Expand to show TLE details & history
Last TLE update: 12 hours ago

TLE from 12 hours ago
0 DIAMANT R/B
1  2682U 67014B   25304.77768809  .00001043  00000-0  46705-3 0  9995
2  2682  39.4561 193.9875 0745901  99.1067 269.4747 13.32182044833414
Epoch: 2025-10-31T18:39Z
TLE epoch observation values (Epoch: 2025-10-31T18:39:52.250Z)
Latitude
-0.00001°
Longitude
-126.29746°
Altitude
1,184.735 km
Speed
7.24 km/s
True Right ascension
12h 55m 56s
True Declination
0° 00' 00"
Sunlit
Object was in daylight at epoch
Visualization orbit readout
Latitude
Unknown
Longitude
Unknown
Altitude
Unknown
Speed
Unknown
Apparent Right ascension
Unknown
Apparent Declination
Unknown
Sunlit
N/A
Visualization observer readout
Local Sidereal Time
02:11:43
Azimuth
Unknown
Elevation
Unknown
Doppler factor
Unknown
Orbital elements
Apogee altitude
1,701.723 km
Perigee altitude
580.034 km
Semi-major axis
7,519.016 km
Eccentricity
0.07459
Inclination
39.4561°
RAAN
193.9875°
Arg. of periapsis
99.1067°
True anomaly
260.96633°
Mean anomaly
269.4747°
Eccentric anomaly
265.21589°
Mean motion
3.32891 °/min
Orbital period
108.14 mins
BSTAR
0.00046705
Loading maneuver chart data...
Computing Atmospheric mass density...
Loading historical data...
Loading historical data...
Loading historical data...
Loading historical data...
Loading historical data...
Loading historical data...
Loading historical data...

Documentation

Showing up to 5 results
|